Regional Weather Roundup
Issued by NWS Sioux Falls, SD

Home | Current Version | Previous Version | Text Only | Print | Product List | Glossary Off
Versions: 1 2 3 4 5 6 7 8 9 10 11 12 13 14 15 16 17 18 19 20 21 22 23 24 25 26 27 28 29 30 31 32 33 34 35 36 37 38 39 40 41 42 43 44 45 46 47 48 49 50

000
ASUS43 KFSD 230202
RWRFSD

WEATHER ROUNDUP FOR SE SOUTH DAKOTA/SW MINNESOTA/NW IOWA
NATIONAL WEATHER SERVICE SIOUX FALLS SD
900 PM CDT THU JUN 22 2017

NOTE: "FAIR" INDICATES FEW OR NO CLOUDS BELOW 12,000 FEET WITH NO
SIGNIFICANT WEATHER AND OR OBSTRUCTIONS TO VISIBILITY.


SDZ038>040-050-052>070-230300-
SOUTHEAST SOUTH DAKOTA

CITY           SKY/WX    TMP DP  RH WIND       PRES   REMARKS
BROOKINGS      CLEAR     66  56  70 NW5       29.83R
CHAMBERLAIN    CLEAR     74  53  47 NW3       29.86R
HURON          CLEAR     72  54  53 SW3       29.82R
MADISON        FAIR      64  52  63 N6        29.84R
MITCHELL       CLEAR     71  48  43 NW3       29.84R
SIOUX FALLS    MOCLDY    66  53  63 N7        29.81R
WINNER         FAIR      73  46  38 N7        29.89R
YANKTON        MOCLDY    72  62  71 N9        29.81R
$$

MNZ071-072-080-081-089-090-097-098-230300-
SOUTHWEST MINNESOTA

CITY           SKY/WX    TMP DP  RH WIND       PRES   REMARKS
FAIRMONT       CLOUDY    67  62  84 N10       29.76R
JACKSON        CLOUDY    64  55  72 N8        29.79R
MARSHALL       CLEAR     67  57  70 NW6       29.80R
MONTEVIDEO     CLEAR     70  57  64 CALM      29.78S
PIPESTONE      MOCLDY    68  52  56 N3        29.82R
REDWOOD FALLS  CLEAR     64  57  78 W5        29.77S
TRACY          PTCLDY    65  59  80 NW3       29.80S
WINDOM         CLOUDY    64  54  68 N6        29.79S
WORTHINGTON    CLOUDY    65  54  67 N9        29.81R
$$

IAZ001>003-012>014-020>022-031-032-NEZ013-014-SDZ071-230300-
NORTHWEST IOWA

CITY           SKY/WX    TMP DP  RH WIND       PRES   REMARKS
CHEROKEE       CLOUDY    69  63  81 N10       29.76R
DENISON        CLOUDY    77  66  69 N15G23    29.71R
ESTHERVILLE    PTCLDY    65  63  93 N9        29.76R
LE MARS        CLEAR     72  64  78 N10G18    29.77R
ORANGE CITY    CLEAR     72  63  73 N12       29.78R
SHELDON        CLOUDY    70  59  68 N15G21    29.76R
SIOUX CITY     CLOUDY    72  63  73 N13G23    29.75R
SPENCER        CLEAR     68  62  81 N8        29.76R
STORM LAKE     CLOUDY    68  63  83 N17G23    29.74S
$$

ABBREVIATIONS USED IN REMARKS
   TC - TEMPERATURE IN CELSIUS
  WCI - WIND CHILL INDEX
   HX - HEAT INDEX
  VSB - VISIBILITY





USA.gov is the U.S. government's official web portal to all federal, state and local government web resources and services.